Regional Weather Roundup
Issued by NWS

Home | Current Version | Previous Version | Text Only | Print | Product List | Glossary Off
Versions: 1 2 3 4 5 6 7 8 9 10 11 12 13 14 15 16 17 18 19 20 21 22 23 24 25 26 27 28 29 30 31 32 33 34 35 36 37 38 39 40 41 42 43 44 45 46 47 48 49 50

000
ASUS43 KDTX 210010
RWRMI
MICHIGAN HOURLY REGIONAL WEATHER ROUNDUP
NATIONAL WEATHER SERVICE DETROIT/PONTIAC MI
800 PM EDT WED AUG 20 2014

NOTE: "FAIR" INDICATES FEW OR NO CLOUDS BELOW 12,000 FEET WITH NO
SIGNIFICANT WEATHER AND/OR OBSTRUCTION TO VISIBILITY.

MIZ047>049-052>055-059>063-066>070-074>076-081>083-210100-
SOUTHEAST LOWER MICHIGAN

CITY           SKY/WX    TMP DP  RH WIND       PRES   REMARKS
ADRIAN         CLEAR     78  64  61 NW5       29.91R
6HR MIN TEMP:  78; 6HR MAX TEMP:  84;

ALMA           CLEAR     73  63  70 W8        29.90S
ANN ARBOR      CLEAR     77  61  57 W7        29.90R
BAD AXE        CLOUDY    73  67  80 SW8       29.89R
6HR MIN TEMP:  69; 6HR MAX TEMP:  80;

DETROIT CITY   CLEAR     82  62  50 W8        29.88R
6HR MIN TEMP:  81; 6HR MAX TEMP:  85; 6HR PCP: TRACE;

DETROIT        PTCLDY    79  64  60 W8        29.89R
6HR MIN TEMP:  79; 6HR MAX TEMP:  84;

FLINT          CLEAR     77  64  64 NW6       29.89S
6HR MIN TEMP:  77; 6HR MAX TEMP:  84;

GROSSE ILE     CLEAR     79  66  65 W5        29.87S
HILLSDALE      CLEAR     77  65  65 CALM      29.92R
HOWELL         CLEAR     75  64  68 W3        29.90R
6HR MIN TEMP:  75; 6HR MAX TEMP:  80;


CITY           SKY/WX    TMP DP  RH WIND       PRES   REMARKS
JACKSON        CLEAR     75  64  68 W3        29.91R
6HR MIN TEMP:  75; 6HR MAX TEMP:  81;

LAMBERTVILLE   CLEAR     79  66  65 N3        29.90R
LANSING        CLEAR     75  63  66 W6        29.91R
6HR MIN TEMP:  75; 6HR MAX TEMP:  81;

LAPEER         NOT AVBL
MASON          CLEAR     74  62  65 NW5       29.91R
MONROE         CLEAR     79  68  69 W3        29.88R
MT. CLEMENS    PTCLDY    79  61  55 NW9       29.87R
6HR MIN TEMP:  78; 6HR MAX TEMP:  83; 6HR PCP: TRACE;

PONTIAC        MOCLDY    77  62  59 W8        29.89R
6HR MIN TEMP:  77; 6HR MAX TEMP:  81;

PORT HOPE        N/A     70  66  87 VRB3      29.87R
6HR MIN TEMP:  69; 6HR MAX TEMP:  73; 6HR PCP:  0.15;

PORT HURON     MOCLDY    72  66  83 N3        29.89R
TRI CITIES     PTCLDY    75  65  70 W9        29.89R
6HR MIN TEMP:  73; 6HR MAX TEMP:  81; 6HR PCP:  0.02;

YPSILANTI      CLEAR     82  63  52 NW9       29.90R
6HR MIN TEMP:  82; 6HR MAX TEMP:  87; 6HR PCP: TRACE;

$$
MIZ043>046-050>051-056>058-064>065-071>073-077>080-210100-
SOUTHWEST LOWER MICHIGAN

CITY           SKY/WX    TMP DP  RH WIND       PRES   REMARKS
BATTLE CREEK   CLEAR     78  64  61 N6        29.91S
6HR MIN TEMP:  78; 6HR MAX TEMP:  82;

BENTON HARBOR  CLEAR     77  66  68 CALM      29.89R
6HR MIN TEMP:  77; 6HR MAX TEMP:  83;

BIG RAPIDS     CLEAR     70  64  80 N6        29.91R
6HR MIN TEMP:  70; 6HR MAX TEMP:  77;

COLDWATER      CLEAR     79  65  63 CALM      29.90S
6HR MIN TEMP:  79; 6HR MAX TEMP:  85;

HOLLAND        CLEAR     77  67  71 CALM      29.90S
6HR MIN TEMP:  77; 6HR MAX TEMP:  81;

GRAND RAPIDS   PTCLDY    77  66  68 W7        29.90S
6HR MIN TEMP:  77; 6HR MAX TEMP:  82;

KALAMAZOO      CLEAR     79  64  60 NW5       29.90R
6HR MIN TEMP:  79; 6HR MAX TEMP:  84;

MARSHALL       CLEAR     76  64  65 NW3       29.90R
MUSKEGON       PTCLDY    75  63  66 N5        29.90S
6HR MIN TEMP:  74; 6HR MAX TEMP:  77;

$$
MIZ016>042-210100-
NORTHERN LOWER MICHIGAN

CITY           SKY/WX    TMP DP  RH WIND       PRES   REMARKS
ALPENA         CLOUDY    67  64  90 N6        29.90R
6HR MIN TEMP:  67; 6HR MAX TEMP:  79;

BEAVER ISLAND  CLOUDY    64  62  94 SW5       29.93R
BELLAIRE       CLOUDY    65  60  85 CALM      29.93R
6HR MIN TEMP:  65; 6HR MAX TEMP:  70;

CADILLAC       PTCLDY    66  61  85 NW6       29.93R
CHARLEVOIX     CLOUDY    64  63  99 W6        29.95R
6HR MIN TEMP:  64; 6HR MAX TEMP:  67;

FRANKFORT      MOCLDY    68  60  76 NE5       29.92S
GAYLORD        CLOUDY    64  60  87 W7        29.93R
6HR MIN TEMP:  63; 6HR MAX TEMP:  69;

GRAYLING       CLOUDY    69  64  83 W8        29.94R
HARBOR SPRINGS CLOUDY    63  62  96 W5        29.92R FOG
HOUGHTON LAKE  CLOUDY    67  61  81 NW10      29.93R
6HR MIN TEMP:  67; 6HR MAX TEMP:  75;

MANISTEE       CLEAR     68  59  73 NE6       29.92F
OSCODA         CLOUDY    71  67  89 CALM      29.87R
PELLSTON       CLOUDY    64  62  93 CALM      29.91S
6HR MIN TEMP:  64; 6HR MAX TEMP:  68;

TRAVERSE CITY  CLOUDY    68  60  75 NW8       29.92R
6HR MIN TEMP:  68; 6HR MAX TEMP:  72;

$$
MIZ007>008-015-210100-
EASTERN UPPER MICHIGAN

CITY           SKY/WX    TMP DP  RH WIND       PRES   REMARKS
KINROSS        CLOUDY    61  61 100 N6        29.90R
6HR MIN TEMP:  61; 6HR MAX TEMP:  66; 6HR PCP:  0.58;

MACKINAC ISLAN FOG       62  62 100 W6        29.90S VSB 1/4
6HR MIN TEMP:  62; 6HR MAX TEMP:  64; 6HR PCP:  0.01;

NEWBERRY       CLOUDY    63  61  94 W6        29.91S
S. S. MARIE    CLOUDY    64  62  93 CALM      29.89S FOG
6HR MIN TEMP:  63; 6HR MAX TEMP:  68; 6HR PCP:  0.03;

$$
MIZ004>006-011>014-085-210100-
CENTRAL UPPER MICHIGAN

CITY           SKY/WX    TMP DP  RH WIND       PRES   REMARKS
MANISTIQUE     CLOUDY    65  62  89 NW5       29.92R
ESCANABA       CLOUDY    64  61  88 S5        29.92R
6HR MIN TEMP:  64; 6HR MAX TEMP:  66;

MENOMINEE      MOCLDY    70  63  78 CALM      29.90S
6HR MIN TEMP:  66; 6HR MAX TEMP:  72;

SAWYER-GWINN   CLOUDY    61  59  94 E3        29.93R
$$
MIZ001>003-009>011-084-210100-
WESTERN UPPER MICHIGAN

CITY           SKY/WX    TMP DP  RH WIND       PRES   REMARKS
IRON MOUNTAIN  CLOUDY    68  61  78 N7        29.92R
6HR MIN TEMP:  66; 6HR MAX TEMP:  70;

HOUGHTON       CLOUDY    61  58  90 W7        29.94R
6HR MIN TEMP:  61; 6HR MAX TEMP:  64;

COPPER HARBOR    N/A     55  54  96 CALM      29.92S
6HR MIN TEMP:  53; 6HR MAX TEMP:  57; 6HR PCP:  0.01;

IRONWOOD       CLOUDY    64  61  88 CALM      29.92S
6HR MIN TEMP:  64; 6HR MAX TEMP:  68;

$$

ABBREVIATIONS USED IN REMARKS
   TC - TEMPERATURE IN CELSIUS
  WCI - WIND CHILL INDEX
   HX - HEAT INDEX
  VSB - VISIBILITY




USA.gov is the U.S. government's official web portal to all federal, state and local government web resources and services.